Wind_Speed
2 2 1 1 1 2 2 2 2 2 2 3 3 3 3 3 4 5 6 6 5 6 5 5 5 7 7 7 6 7 6 6 6 6 6 6 6 6 6 7 7 6 6
2 2 2 2 2 3 3 3 2 3 3 3 3 3 3 3 4 5 7 6 6 6 6 6 6 6 7 7 7 7 7 7 7 7 7 7 7 6 6 7 7 6 6
2 2 2 2 3 3 4 4 4 3 3 4 4 4 4 4 4 4 6 6 7 7 7 6 6 7 7 7 8 8 8 7 8 7 8 8 7 7 8 7 7 7 7
2 3 2 2 3 4 4 4 4 4 4 4 4 4 4 4 4 4 4 6 7 7 6 6 7 7 8 8 8 8 8 8 8 8 8 8 8 7 8 7 7 8 8
3 3 2 3 3 4 4 4 4 4 4 4 5 5 5 4 5 5 5 5 7 7 7 6 6 6 7 7 7 8 9 9 9 9 9 8 8 7 8 8 8 8 8
3 3 3 3 4 4 5 5 4 4 4 4 4 5 5 4 5 5 5 5 5 5 5 5 6 6 7 8 8 8 8 9 9 9 9 9 8 9 9 9 9 8 8
3 2 3 3 4 4 4 4 4 4 5 5 4 4 4 4 4 5 5 5 5 5 5 5 5 6 7 8 8 8 9 9 9 9 9 9 9 10 10 10 10 10 10
3 3 3 4 4 4 4 4 4 4 4 5 5 5 4 4 4 4 4 5 5 6 6 5 6 7 7 8 9 9 9 9 9 9 9 9 10 10 11 11 11 12 12
3 3 3 3 4 4 4 4 4 5 5 5 5 5 5 4 4 5 5 5 6 6 6 6 6 7 7 8 8 8 9 9 10 9 9 9 10 11 11 12 12 13 13
3 3 3 3 3 3 3 4 4 4 5 5 5 5 5 5 5 5 5 6 6 7 7 7 6 8 8 8 8 8 9 10 10 10 9 9 10 10 11 11 12 12 13
2 3 3 3 3 3 3 3 3 4 4 4 4 5 5 5 5 6 6 6 6 6 6 6 6 7 8 8 8 9 9 10 10 11 11 10 11 11 11 10 11 11 12
3 3 2 2 2 3 3 3 4 4 4 4 4 4 5 5 5 6 6 6 6 6 6 6 7 8 8 8 8 8 9 10 10 10 11 11 11 12 12 11 11 10 11
3 3 2 2 2 2 3 3 4 4 4 4 4 4 5 5 5 5 5 6 6 6 6 6 7 7 8 8 8 8 8 9 10 10 11 11 12 12 12 12 12 11 11
3 3 2 2 2 2 2 3 3 3 4 4 4 4 5 5 5 5 5 5 6 6 6 7 7 7 8 8 8 9 9 9 9 10 10 10 11 12 12 13 12 12 12
2 2 2 2 2 2 2 3 3 3 3 4 4 5 4 5 5 5 6 6 6 6 6 6 6 7 7 7 8 9 9 9 9 9 10 10 11 11 11 12 13 12 12
3 3 3 3 2 2 2 2 3 3 3 4 4 4 4 4 4 5 5 6 5 5 5 5 6 6 6 7 8 9 9 9 8 8 8 9 10 10 10 11 11 12 12
4 4 4 4 3 2 2 3 3 3 3 3 3 4 4 4 4 5 5 5 6 6 5 5 5 5 6 7 7 8 8 8 8 9 8 9 9 9 10 10 10 11 11
4 4 4 5 4 3 3 3 3 2 2 2 2 3 4 4 4 4 5 5 5 5 5 5 5 5 5 5 6 7 7 7 7 7 7 6 7 7 8 9 9 10 11
4 5 5 5 4 4 4 3 3 2 2 2 2 3 3 3 4 4 4 4 5 5 5 5 5 5 4 5 6 6 6 6 7 7 7 7 6 7 7 7 7 8 9
4 5 5 5 5 5 4 3 3 3 3 3 4 4 4 4 4 4 4 4 5 4 4 5 5 5 5 5 5 5 5 6 6 6 6 7 7 7 7 8 8 8 8
4 5 5 5 5 5 4 3 3 3 4 4 4 4 5 4 4 4 4 4 4 4 4 4 4 4 4 5 5 4 5 5 5 5 5 6 6 7 7 7 7 7 7
5 5 5 6 5 5 4 4 4 4 4 4 4 4 5 5 4 4 3 3 3 4 4 4 5 4 5 5 5 4 4 4 4 5 5 5 5 5 5 6 6 6 7
5 5 6 5 5 5 4 4 4 4 4 5 5 4 4 4 4 4 3 3 3 4 4 4 5 5 4 5 5 5 5 4 4 4 5 5 4 4 4 5 5 6 6
6 6 6 6 6 5 4 5 5 4 4 5 5 5 5 4 4 4 4 4 4 4 4 4 5 5 4 4 5 5 5 4 4 4 5 4 4 4 4 5 6 6 7
7 7 6 6 6 5 5 6 5 5 5 5 5 5 5 4 4 4 4 4 4 4 4 4 5 5 5 5 5 5 4 5 5 4 5 5 5 5 5 6 6 7 8
7 7 7 7 6 6 6 6 6 6 6 6 5 5 5 5 5 5 5 4 5 5 4 4 5 5 6 5 4 4 4 5 4 5 5 5 5 6 7 8 8 8 8
Wind_Direction
337 329 332 320 303 278 264 253 261 264 259 253 241 243 248 250 239 227 221 221 219 223 226 230 230 224 221 218 216 213 212 215 211 208 204 204 205 201 198 197 191 189 191
323 320 334 335 312 281 263 255 258 256 252 255 249 246 247 243 243 236 225 224 224 227 226 225 227 221 220 220 217 219 219 216 218 220 216 212 207 204 202 201 200 200 202
319 316 313 311 302 291 276 260 247 248 251 250 250 244 245 243 246 238 234 226 228 234 233 231 233 228 226 220 217 220 222 220 224 225 222 219 218 216 212 210 213 213 213
320 312 299 291 292 294 286 274 254 251 249 247 247 245 246 243 243 248 238 228 227 230 231 231 233 230 228 223 222 222 224 226 230 227 225 224 223 222 220 215 218 221 223
312 311 300 283 281 286 292 284 270 256 253 254 251 248 248 250 252 251 250 242 228 230 229 228 232 233 233 230 231 231 231 235 236 234 233 232 231 230 226 220 224 228 233
302 305 297 283 278 281 284 284 275 268 257 253 249 246 249 253 258 256 261 254 243 237 231 232 233 235 241 238 235 234 233 238 240 238 238 236 233 232 230 229 228 233 235
305 302 294 284 282 279 281 283 280 277 265 253 247 244 248 255 260 260 262 259 254 250 245 242 239 237 244 241 237 238 237 238 238 239 239 242 238 235 235 234 236 240 240
301 293 289 285 286 283 279 284 281 279 273 255 241 240 247 254 259 260 260 256 253 252 247 248 253 244 243 244 242 242 244 243 241 240 238 242 244 240 239 239 242 246 248
306 299 295 286 287 286 281 284 281 277 274 260 245 244 245 252 256 255 253 255 254 252 251 250 253 250 247 249 247 245 245 244 244 245 246 247 247 245 245 246 248 248 249
319 303 295 285 285 291 288 283 283 276 272 260 246 245 245 252 259 259 255 257 258 255 253 255 253 250 249 249 252 252 249 248 250 250 251 253 255 252 250 251 250 251 248
339 329 309 280 285 286 285 286 283 272 265 262 252 245 244 250 258 262 261 256 257 257 256 257 255 250 250 253 255 255 254 254 256 255 254 255 254 251 253 254 255 253 251
357 353 337 303 293 283 281 285 281 272 262 259 256 252 250 255 262 265 265 260 259 261 259 260 260 255 254 258 259 257 257 258 261 258 257 257 255 251 252 254 256 258 257
357 355 355 336 311 294 289 293 286 280 268 256 254 259 260 263 265 265 262 264 263 262 261 263 264 259 259 262 261 260 261 261 263 261 261 260 258 256 254 254 254 254 258
345 344 354 334 316 306 295 294 292 289 278 267 261 261 266 264 267 265 262 265 266 262 261 265 267 261 261 263 262 263 261 261 262 264 262 261 259 257 255 255 254 255 257
347 339 354 350 340 326 311 305 302 294 285 278 265 264 266 267 271 272 270 266 268 267 264 265 262 264 262 263 266 267 266 269 267 267 264 261 257 256 258 256 253 256 260
8 8 8 358 8 354 329 324 308 294 288 286 274 268 261 261 269 275 273 265 268 271 273 277 272 267 263 262 264 266 266 270 268 268 265 261 259 258 258 258 255 255 260
14 15 9 360 2 352 337 325 313 300 293 285 272 268 264 265 265 269 268 267 266 270 272 277 275 270 263 262 263 265 267 266 266 261 265 262 259 256 256 258 256 253 256
8 6 0 353 352 340 328 320 319 312 312 292 270 269 273 274 268 266 269 268 271 272 275 277 282 280 271 268 270 269 268 265 269 265 264 264 261 259 258 259 257 254 254
357 352 348 346 342 334 323 314 320 318 327 318 294 288 286 283 278 274 279 270 273 279 283 281 286 288 292 290 283 275 270 269 269 266 263 264 263 263 262 260 255 257 259
350 344 341 342 342 338 332 323 317 307 300 301 298 293 293 291 284 281 278 274 273 277 282 293 295 291 300 305 297 283 274 276 272 269 268 266 263 262 260 256 257 261 263
346 340 339 341 343 338 331 326 311 298 294 300 296 288 286 289 288 276 274 276 274 274 278 292 307 302 296 306 309 294 282 280 283 274 270 270 268 265 259 257 257 262 265
337 332 328 331 330 328 322 318 313 305 297 298 292 286 283 284 281 275 279 284 282 282 282 289 305 302 296 299 301 292 287 287 281 282 285 283 276 271 264 263 263 265 267
328 324 319 319 319 319 319 319 314 306 300 298 288 280 281 282 274 269 274 281 288 288 289 293 301 300 289 293 293 293 291 284 282 277 281 277 275 274 269 269 269 270 272
328 320 316 317 313 308 311 314 310 304 302 299 291 281 280 285 276 267 266 279 284 294 295 296 299 302 291 288 291 296 293 283 285 282 273 268 273 275 277 280 280 278 279
321 322 320 321 314 303 303 308 307 310 308 300 291 280 272 275 274 266 267 269 278 291 299 302 301 301 301 289 287 285 287 279 278 281 275 270 267 269 275 282 283 285 283
319 319 321 321 314 306 303 300 296 302 306 298 288 280 273 268 269 268 269 268 277 284 286 293 294 298 303 300 289 286 288 284 280 287 286 280 270 267 270 275 277 277 279
Height
5881 5880 5880 5879 5879 5879 5879 5879 5879 5879 5879 5879 5879 5879 5879 5879 5879 5879 5879 5879 5880 5880 5880 5880 5880 5880 5880 5881 5881 5882 5882 5882 5882 5882 5882 5882 5882 5882 5882 5883 5883 5884 5884
5880 5880 5879 5879 5879 5878 5878 5878 5878 5878 5878 5878 5878 5879 5879 5879 5878 5878 5878 5879 5879 5879 5879 5880 5880 5880 5880 5880 5881 5881 5881 5882 5882 5882 5882 5882 5882 5881 5882 5882 5883 5883 5884
5880 5879 5879 5878 5878 5878 5877 5877 5877 5878 5878 5878 5878 5878 5878 5878 5878 5878 5878 5878 5878 5878 5879 5879 5879 5879 5879 5880 5880 5880 5881 5881 5881 5881 5881 5881 5881 5881 5881 5882 5882 5883 5884
5879 5879 5878 5878 5878 5877 5877 5877 5876 5877 5877 5877 5877 5877 5877 5877 5877 5877 5877 5877 5878 5877 5878 5878 5878 5878 5878 5878 5879 5879 5879 5879 5880 5880 5880 5880 5881 5880 5881 5881 5882 5882 5883
5878 5878 5877 5877 5877 5877 5876 5876 5876 5876 5876 5876 5876 5876 5877 5877 5877 5877 5876 5876 5877 5877 5877 5877 5877 5877 5877 5877 5878 5878 5878 5878 5878 5879 5879 5879 5880 5880 5880 5880 5881 5881 5882
5877 5877 5876 5876 5876 5876 5876 5875 5875 5875 5875 5875 5875 5875 5876 5876 5876 5876 5876 5876 5876 5875 5876 5876 5876 5876 5876 5876 5876 5877 5877 5877 5877 5877 5878 5878 5879 5879 5879 5880 5880 5880 5881
5876 5876 5876 5875 5875 5875 5875 5874 5874 5874 5874 5874 5874 5874 5875 5875 5875 5875 5875 5875 5875 5874 5875 5875 5875 5875 5875 5875 5875 5875 5875 5875 5876 5876 5877 5877 5878 5878 5878 5878 5879 5879 5879
5875 5875 5875 5874 5874 5874 5874 5873 5873 5873 5873 5873 5873 5873 5874 5874 5873 5874 5874 5874 5873 5873 5873 5873 5873 5873 5873 5873 5873 5873 5874 5874 5874 5875 5875 5875 5876 5876 5876 5877 5877 5878 5878
5874 5874 5874 5873 5873 5873 5873 5872 5872 5872 5872 5872 5872 5872 5873 5873 5872 5872 5872 5872 5872 5872 5872 5872 5872 5872 5872 5872 5872 5872 5872 5872 5873 5873 5874 5874 5874 5874 5875 5875 5875 5875 5876
5873 5873 5872 5872 5872 5872 5872 5871 5871 5871 5871 5871 5871 5871 5871 5871 5871 5871 5871 5871 5871 5870 5870 5870 5870 5870 5870 5870 5870 5870 5870 5871 5871 5871 5872 5872 5872 5872 5872 5873 5873 5873 5873
5872 5872 5871 5871 5871 5871 5871 5870 5870 5870 5870 5870 5870 5870 5870 5870 5870 5870 5869 5869 5869 5869 5869 5869 5869 5868 5868 5868 5868 5868 5869 5869 5869 5869 5869 5870 5870 5870 5870 5870 5870 5870 5871
5872 5871 5871 5871 5870 5870 5870 5869 5869 5869 5869 5869 5869 5869 5869 5869 5869 5868 5868 5868 5867 5867 5867 5867 5867 5867 5867 5866 5866 5866 5867 5867 5867 5867 5867 5867 5867 5868 5868 5868 5868 5868 5868
5872 5871 5870 5870 5869 5869 5869 5868 5868 5868 5868 5867 5867 5867 5867 5867 5867 5867 5866 5866 5866 5866 5866 5865 5865 5865 5865 5865 5864 5864 5865 5865 5865 5865 5865 5865 5865 5865 5865 5866 5866 5866 5866
5871 5870 5870 5869 5869 5868 5868 5867 5867 5867 5866 5866 5866 5866 5866 5866 5865 5865 5865 5865 5864 5864 5864 5864 5864 5863 5863 5863 5863 5862 5862 5863 5863 5863 5862 5862 5863 5863 5863 5863 5864 5864 5864
5870 5870 5869 5869 5868 5867 5867 5866 5866 5866 5866 5865 5865 5865 5864 5864 5864 5864 5863 5863 5863 5863 5862 5862 5862 5862 5862 5861 5861 5860 5860 5860 5860 5860 5860 5860 5860 5860 5861 5861 5861 5861 5861
5870 5869 5868 5868 5867 5867 5866 5866 5865 5865 5864 5864 5864 5863 5863 5863 5863 5862 5862 5862 5861 5861 5861 5860 5860 5860 5860 5859 5859 5858 5859 5858 5858 5858 5858 5858 5857 5858 5858 5858 5859 5859 5859
5869 5869 5868 5867 5867 5866 5866 5865 5864 5864 5863 5863 5863 5862 5862 5862 5861 5861 5861 5860 5860 5860 5859 5859 5858 5858 5858 5857 5857 5857 5857 5856 5856 5856 5856 5856 5856 5856 5856 5856 5856 5856 5857
5869 5868 5867 5867 5866 5865 5865 5864 5863 5863 5862 5862 5862 5861 5861 5861 5860 5860 5860 5859 5859 5858 5858 5857 5857 5856 5856 5855 5855 5855 5855 5855 5854 5854 5854 5854 5854 5854 5854 5854 5854 5854 5854
5868 5867 5867 5866 5865 5864 5864 5863 5862 5862 5862 5861 5861 5860 5860 5860 5859 5859 5859 5858 5858 5857 5857 5856 5856 5855 5854 5854 5854 5853 5853 5853 5853 5853 5853 5852 5852 5852 5852 5852 5852 5852 5852
5867 5867 5866 5865 5864 5863 5863 5862 5861 5861 5861 5860 5860 5859 5859 5858 5858 5858 5857 5857 5857 5857 5856 5856 5855 5854 5853 5853 5852 5852 5852 5851 5851 5851 5851 5851 5851 5850 5850 5850 5850 5850 5850
5867 5866 5865 5864 5863 5863 5862 5861 5860 5860 5860 5859 5859 5858 5858 5857 5857 5856 5856 5856 5856 5856 5855 5855 5854 5853 5852 5852 5852 5851 5851 5850 5850 5850 5850 5849 5849 5849 5848 5848 5848 5848 5848
5866 5865 5864 5863 5862 5861 5861 5860 5860 5859 5858 5858 5857 5857 5856 5856 5855 5855 5855 5855 5855 5854 5854 5854 5853 5852 5852 5851 5851 5850 5850 5850 5849 5849 5848 5848 5847 5847 5847 5846 5846 5846 5845
5865 5864 5863 5862 5861 5860 5859 5859 5858 5858 5857 5856 5856 5855 5855 5855 5854 5854 5854 5854 5853 5853 5853 5852 5852 5851 5850 5850 5850 5849 5849 5848 5848 5848 5847 5846 5846 5846 5845 5845 5844 5844 5843
5863 5862 5861 5860 5860 5859 5858 5857 5857 5856 5855 5855 5854 5854 5854 5853 5853 5853 5853 5852 5852 5852 5852 5851 5851 5850 5849 5849 5848 5848 5848 5847 5847 5846 5846 5845 5845 5844 5844 5843 5843 5842 5842
5862 5861 5860 5859 5858 5857 5856 5856 5855 5854 5854 5853 5853 5852 5852 5852 5852 5852 5851 5851 5851 5851 5850 5850 5849 5849 5848 5848 5847 5846 5846 5846 5845 5845 5844 5844 5843 5843 5842 5842 5841 5841 5840
5860 5859 5858 5857 5856 5855 5855 5854 5853 5853 5852 5851 5851 5851 5850 5851 5851 5850 5850 5850 5850 5850 5849 5849 5848 5848 5847 5846 5845 5845 5845 5844 5843 5843 5842 5842 5841 5841 5840 5840 5839 5839 5838